Regional Weather Roundup
Issued by NWS

Home | Current Version | Previous Version | Text Only | Print | Product List | Glossary Off
Versions: 1 2 3 4 5 6 7 8 9 10 11 12 13 14 15 16 17 18 19 20 21 22 23 24 25 26 27 28 29 30 31 32 33 34 35 36 37 38 39 40 41 42 43 44 45 46 47 48 49 50

374
ASUS43 KLOT 232008
RWRIL

ILLINOIS REGIONAL WEATHER ROUNDUP
NATIONAL WEATHER SERVICE CHICAGO/ROMEOVILLE IL
200 PM CST THU NOV 23 2017

NOTE: "FAIR" INDICATES FEW OR NO CLOUDS BELOW 12,000 FEET WITH NO
SIGNIFICANT WEATHER AND/OR OBSTRUCTIONS TO VISIBILITY.

* THESE STATIONS ARE NOT UNDER NWS QUALITY CONTROL. THEY ALSO MAY NOT
  REPORT WEATHER SUCH AS PRECIPITATION OR FOG.

ILZ001-002-007-009-015-016-024-232100-
NORTHWEST ILLINOIS

CITY           SKY/WX    TMP DP  RH WIND       PRES   REMARKS
MOLINE         SUNNY     49  25  39 W6        29.92F
STERLING*      SUNNY     47  26  44 W7        29.93F
SAVANNA*       SUNNY     46  25  43 S3        29.92F
$$

ILZ003-004-008-010-011-017-018-232100-
NORTH CENTRAL ILLINOIS

CITY           SKY/WX    TMP DP  RH WIND       PRES   REMARKS
ROCKFORD       SUNNY     47  24  40 SW8       29.93F
FREEPORT*      SUNNY     43  24  47 SW5       29.92F
ROCHELLE*      SUNNY     44  27  51 SW10      29.92F
DE KALB*       SUNNY     44  26  48 SW10      29.92F
PERU*          SUNNY     45  24  43 W9        29.94S
$$

ILZ005-006-012>014-019>023-232100-
NORTHEAST ILLINOIS

CITY           SKY/WX    TMP DP  RH WIND       PRES   REMARKS
CHICAGO-OHARE  MOSUNNY   46  23  40 W10       29.91S
CHICAGO-MIDWAY MOSUNNY   47  25  42 W9        29.92S
AURORA         SUNNY     45  26  47 W9        29.92F
LANSING*       SUNNY     47  30  50 SW14      29.93S
JOLIET*        SUNNY     48  27  44 SW10      29.92F
WAUKEGAN       SUNNY     44  25  47 SW12      29.89F
DUPAGE AIRPORT SUNNY     44  26  49 SW12      29.91F
KANKAKEE*      SUNNY     47  26  42 SW12G18   29.95S
WHEELING       SUNNY     46  24  42 SW10      29.92F
MORRIS*        SUNNY     46  26  44 W9        29.92F
ROMEOVILLE*    SUNNY     46  27  46 W8        29.92F
NORTHERLY ISL    N/A     46  21  37 S6          N/A
$$

LMZ740>746-232100-
SOUTHERN LAKE MICHIGAN

STATION/POSITION SKY/WX   TEMP    WIND        PRES    VSBY  WAVE
                          AIR SEA DIR/SP/G                  HT/PER
                          (F)     (DEG/KT/KT) (MB)    (MI)  (FT/S)
SOUTHERN BUOY              40 47  260/ 14/ 16 1014.1          4/ 6
HARRISON CRIB              45     230/ 10/ 11   N/A
BURNHAM HARBOR             46     200/  6/ 14   N/A
CALUMET HARBOR             46     180/  9/ 13 1012.5F
BURNS HARBOR               45     230/ 10/ 15 1013.9F
MICHIGAN CITY              44     210/ 13/ 15   N/A
$$

ILZ025>027-034>036-040-047-049-050-058-095>099-232100-
WEST-CENTRAL ILLINOIS

CITY           SKY/WX    TMP DP  RH WIND       PRES   REMARKS
QUINCY         SUNNY     51  28  41 W8        29.95F
GALESBURG*     SUNNY     48  29  46 SW5       29.94F
MACOMB*        SUNNY     48  28  45 W7        29.97S
JACKSONVILLE*  SUNNY     51  27  39 SW9       29.95S
PITTSFIELD*    SUNNY     52  29  40 SW9       29.96S
$$

ILZ028>032-037-038-041>044-048-051>054-059>061-232100-
CENTRAL ILLINOIS

CITY           SKY/WX    TMP DP  RH WIND       PRES   REMARKS
PONTIAC        SUNNY     48  27  44 SW8       29.94F
BLOOMINGTON    SUNNY     48  27  44 SW15      29.94S
DECATUR        SUNNY     50  27  40 SW14      29.95F
PEORIA         SUNNY     48  26  42 VRB6      29.95S
LACON*         SUNNY     47  25  41 SW3       29.93F
LINCOLN*       SUNNY     51  30  44 W6        29.95S
SPRINGFIELD    SUNNY     52  27  38 SW6       29.96F
TAYLORVILLE    SUNNY     50  28  41 SW9       29.96F
$$

ILZ033-039-045-046-055>057-062-063-232100-
EAST-CENTRAL ILLINOIS

CITY           SKY/WX    TMP DP  RH WIND       PRES   REMARKS
CHAMPAIGN      SUNNY     50  27  40 S15       29.95F
DANVILLE*      SUNNY     45  28  50 S13       29.94F
RANTOUL*       SUNNY     49  29  45 SW10G17   29.94F
MATTOON        SUNNY     47  27  45 S14       29.97F
PARIS*         SUNNY     46  29  50 S10       29.99F
$$

ILZ079-100>102-232100-
SOUTHWEST ILLINOIS

CITY           SKY/WX    TMP DP  RH WIND       PRES   REMARKS
ALTON          SUNNY     54  28  37 S10       29.96F
BELLEVILLE     SUNNY     56  27  33 S10       29.95F
CAHOKIA*       SUNNY     58  24  27 S7        29.95F
SPARTA*        SUNNY     53  28  37 S8        30.00S
$$

ILZ064>066-069>071-074>076-080>082-084>086-088>090-092>094-232100-
SOUTH-CENTRAL ILLINOIS

CITY           SKY/WX    TMP DP  RH WIND       PRES   REMARKS
CARBONDALE     SUNNY     52  25  35 S10       30.01F
CAIRO*         SUNNY     50  26  39 SW7       30.05F
EFFINGHAM*     SUNNY     51  26  38 S8        30.00F
MARION         SUNNY     54  23  30 S12       30.02F
MT. VERNON     SUNNY     52  27  38 SW13      30.00F
CENTRALIA*     SUNNY     53  30  41 S9        29.98F
SALEM*         SUNNY     53  26  35 S9        29.98F
METROPOLIS*    SUNNY     51  23  32 S9        30.05F
$$

ILZ067-068-072-073-078-083-087-091-232100-
SOUTHEAST ILLINOIS

CITY           SKY/WX    TMP DP  RH WIND       PRES   REMARKS
LAWRENCEVILLE  SUNNY     47  26  44 S12       30.03F
FLORA*         SUNNY     51  25  35 SW10      30.00F
FAIRFIELD*     SUNNY     51  25  36 S3        30.00F
HARRISBURG*    SUNNY     52  24  33 SW9       30.02F
ROBINSON*      SUNNY     47  23  39 S6        30.02F
CARMI*         SUNNY     49  25  39 S10       30.02F
$$

ABBREVIATIONS USED IN REMARKS
   TC - TEMPERATURE IN CELSIUS
  WCI - WIND CHILL INDEX
   HX - HEAT INDEX
  VSB - VISIBILITY
$$





USA.gov is the U.S. government's official web portal to all federal, state and local government web resources and services.